CAPE
1870 1614 1563 1407 312 19 46 154 149 236 209 103 62 280 29 0 30 0 9 220 367 644 1134 1721 2117 1826 1194 1521 1699 1613 1359 1402 1791 1930 1574 1186 1079 1353 1261 1501 1873 1792 1752 1653 1623 1691 1770 2020 1924
1649 1677 1534 393 29 16 43 247 263 241 237 220 142 26 91 12 15 93 255 369 554 971 1189 1462 2114 2140 1324 1424 1730 1824 1197 1191 1327 1507 1418 1240 1163 1150 1229 1281 1586 1609 1519 1722 1861 1710 1542 1350 1528
1331 1568 1495 170 77 3 19 412 266 367 287 184 243 200 114 170 116 214 588 414 829 1036 1180 1291 2040 1843 1299 1251 1298 1269 1241 1211 1125 1058 1091 1119 1112 1114 1233 1344 1459 1595 1747 1399 1200 1202 1238 1044 838
1275 1083 671 242 162 83 481 332 306 144 240 403 284 303 135 267 330 675 610 608 996 1045 1102 1860 1779 1339 1275 1226 1157 1040 1096 1125 1119 1042 946 936 980 1069 1035 1049 1042 1319 1382 1540 1387 1347 1315 1105 916
97 189 109 281 240 108 553 666 206 285 484 409 355 395 280 625 725 722 660 790 1026 1081 1152 1426 2212 1950 1346 1405 1450 1386 1259 1188 1099 1029 976 804 695 749 934 955 1065 985 970 1082 1107 1202 1222 1232 921
0 160 77 51 154 507 528 601 462 469 460 354 411 432 485 796 770 708 704 782 1125 1355 1305 1362 1757 1766 1575 1421 1563 1587 1431 1358 1169 996 869 766 657 631 632 707 837 813 886 1018 991 946 958 1024 843
345 306 63 32 73 427 512 395 441 468 409 410 420 430 686 827 816 793 712 851 1225 1458 1400 1215 1128 1251 1423 1469 1673 1707 1540 1358 1214 1008 790 651 669 771 822 822 712 806 857 1057 1154 1224 721 871 836
210 218 16 120 258 263 323 270 500 404 435 468 404 496 676 744 1013 1009 971 968 1234 1301 1428 1263 1117 1017 1151 1349 1754 1770 1720 1480 1118 987 953 1103 1352 1452 1294 1596 1267 1312 1145 1241 1170 1304 1309 1327 1106
0 0 0 21 16 77 148 234 365 240 381 487 539 451 623 1041 1162 1129 1074 1210 1370 1408 1264 1309 1218 1172 1218 1273 1549 1644 1505 1388 1267 1174 1398 1342 884 875 1060 1273 1419 1287 1455 1167 1342 1333 1182 1385 1517
153 7 60 14 0 125 390 256 287 198 223 240 471 433 920 1063 1110 1100 1046 1084 1203 1221 1226 1181 1109 1057 1015 1315 1131 1017 1007 948 819 938 721 1152 821 429 721 1190 1382 1380 1463 1569 1454 1444 1515 1395 827
180 57 459 124 145 144 382 446 448 146 103 177 343 633 854 865 834 713 796 913 961 954 1159 895 1022 931 1018 1325 1066 465 434 712 632 732 822 833 722 19 59 618 665 941 1281 1011 1233 1196 725 861 699
27 124 177 304 173 372 248 12 178 177 197 90 165 608 701 696 551 478 443 376 480 630 799 618 966 935 841 748 994 725 406 729 676 680 662 545 522 15 3 284 420 338 367 360 306 378 460 345 412
25 53 64 249 2 80 298 300 204 283 92 20 12 367 425 500 393 358 350 324 418 464 550 427 742 733 755 793 885 851 461 575 597 578 565 590 514 411 106 84 323 290 43 4 8 37 364 125 154
113 208 312 358 304 243 170 188 210 180 0 4 16 191 250 282 229 209 252 305 384 378 485 421 371 434 745 781 719 823 512 338 432 472 651 573 456 264 233 66 192 241 106 86 64 40 53 81 56
50 71 274 58 491 188 86 55 71 0 0 6 0 4 110 107 82 39 211 205 303 306 401 327 235 351 585 614 510 361 559 510 461 427 394 446 195 198 143 96 99 64 72 57 65 25 27 36 58
51 91 30 220 307 323 45 86 33 0 0 0 0 0 0 0 0 0 41 84 129 205 241 176 408 461 399 344 199 4 59 3 0 103 146 90 9 0 246 133 110 67 93 29 47 46 19 3 0
0 1 80 347 446 210 17 2 17 0 2 0 0 0 0 0 0 0 0 1 19 33 67 154 317 338 181 62 1 0 0 31 66 96 125 35 7 309 201 348 357 258 69 27 92 40 7 2 28
0 0 4 65 324 208 125 49 59 21 0 0 0 0 0 0 0 0 0 0 2 0 63 125 20 9 127 0 58 105 195 529 383 472 227 18 121 403 692 561 696 339 55 11 49 39 5 0 1
0 0 0 0 322 213 150 67 166 23 9 0 0 0 0 0 0 0 0 0 0 0 6 0 0 0 59 275 451 342 469 469 646 279 149 313 738 1199 1079 825 687 347 141 80 59 27 15 34 134
0 0 0 10 443 284 201 100 37 85 27 1 0 0 0 0 0 0 0 0 9 0 0 0 0 0 9 327 341 266 289 489 421 215 97 44 4 344 901 1080 755 440 312 51 50 57 53 62 123
0 0 0 26 469 198 148 41 48 64 138 25 0 0 0 0 0 0 0 0 8 0 0 0 0 0 67 428 49 532 466 326 222 99 0 0 0 0 983 1013 534 494 248 254 159 251 301 174 212
0 0 0 579 518 275 145 20 0 105 171 238 70 0 0 0 0 0 0 0 1 0 0 0 0 2 88 202 113 752 912 852 401 66 2 0 0 0 386 1078 342 529 608 365 247 377 353 363 388
0 0 0 126 4 0 56 41 0 109 162 248 305 77 0 0 0 0 0 0 0 0 0 10 0 9 141 153 127 265 662 630 266 21 50 9 0 0 18 1124 658 698 769 560 577 492 546 457 128
0 0 0 0 0 0 0 0 0 43 327 187 300 325 11 24 0 0 0 0 0 0 0 162 6 46 93 128 208 341 527 604 509 57 0 230 153 48 88 783 1007 703 690 547 673 542 153 0 0
0 0 0 0 0 0 0 0 0 0 0 174 387 402 91 7 1 0 0 0 0 0 17 369 52 111 226 236 353 416 542 624 643 503 369 609 469 517 615 914 535 554 575 638 411 62 0 0 0
0 0 0 0 0 0 0 0 0 18 4 2 329 438 217 14 4 0 0 0 0 0 38 343 342 194 282 402 442 513 769 770 871 817 924 762 686 799 1141 1005 593 664 640 455 10 0 0 0 0
0 0 0 0 0 0 0 0 19 32 237 141 465 275 132 32 55 24 0 0 0 4 50 320 501 426 365 409 410 440 611 1204 1172 1213 1129 1054 1039 1089 1278 895 713 590 448 195 0 1 0 0 0
0 0 0 0 0 0 0 0 47 145 254 302 514 388 169 106 100 82 4 0 2 55 123 263 529 575 495 498 435 398 508 657 1175 1622 1383 1531 853 935 1145 864 819 475 158 57 14 0 0 0 0
0 0 0 0 0 0 0 0 0 78 23 182 182 470 279 120 110 158 70 0 36 197 242 400 498 685 727 713 694 697 736 709 753 1183 1800 1544 490 126 1070 622 536 415 143 91 2 0 0 0 0
0 0 0 0 0 0 0 0 0 0 0 3 116 75 402 232 138 180 163 24 96 394 500 538 664 785 823 1043 1101 1273 1143 1255 1274 1138 1235 1487 926 654 497 505 736 457 201 35 0 0 0 0 0
CIN
-0 -0 -1 -8 -99 -179 -103 -38 -72 -84 -102 -125 -127 -78 -81 -0 -78 -0 -165 -113 -77 -24 -1 -0 -0 -0 -0 -0 -0 -0 -0 -0 -0 -0 -0 -0 -0 -0 -0 -0 -0 -0 -0 -0 -0 -0 -0 -0 -0
-14 -3 -10 -125 -178 -109 -85 -43 -61 -78 -100 -118 -97 -124 -115 -98 -266 -224 -132 -79 -64 -16 -8 -1 -0 -0 -0 -0 -0 -0 -0 -0 -0 -0 -0 -0 -0 -1 -1 -1 -0 -0 -0 -0 -0 -0 -0 -0 -0
-48 -23 -20 -170 -162 -27 -48 -41 -100 -108 -117 -113 -99 -123 -168 -196 -268 -199 -107 -107 -29 -11 -9 -2 -0 -0 -0 -0 -1 -1 -0 -0 -2 -0 -0 -0 -0 -1 -0 -0 -0 -0 -0 -0 -0 -0 -1 -7 -21
-70 -83 -152 -115 -58 -50 -61 -60 -86 -145 -101 -79 -119 -132 -228 -169 -191 -143 -121 -89 -33 -21 -12 -0 -0 -0 -0 -0 -3 -4 -3 -1 -4 -1 -1 -1 -1 -0 -0 -0 -0 -0 -0 -0 -0 -0 -0 -0 -12
-403 -283 -132 -98 -55 -47 -41 -85 -133 -110 -72 -79 -113 -116 -165 -62 -138 -156 -145 -87 -54 -27 -9 -0 -0 -0 -0 -0 -0 -0 -0 -0 -2 -7 -2 -6 -6 -2 -0 -0 -0 -2 -0 -0 -0 -0 -0 -0 -8
-27 -287 -108 -96 -62 -27 -84 -126 -86 -89 -106 -132 -134 -155 -123 -99 -162 -167 -153 -130 -70 -26 -6 -2 -0 -0 -0 -0 -0 -0 -0 -0 -2 -5 -4 -8 -6 -10 -13 -14 -9 -6 -2 -0 -0 -0 -0 -0 -2
-243 -177 -128 -61 -115 -32 -78 -142 -64 -103 -114 -115 -123 -150 -112 -78 -144 -159 -158 -124 -61 -35 -31 -24 -19 -6 -0 -0 -0 -0 -0 -0 -1 -2 -4 -11 -10 -6 -9 -17 -22 -7 -3 -0 -0 -0 -5 -1 -1
-277 -230 -112 -148 -127 -74 -68 -85 -78 -112 -116 -137 -119 -116 -117 -119 -90 -109 -90 -73 -37 -31 -28 -47 -54 -43 -17 -3 -0 -0 -0 -0 -0 -4 -6 -1 -0 -0 -0 -0 -0 -0 -0 -0 -0 -0 -0 -0 -0
-0 -0 -72 -161 -159 -107 -110 -79 -120 -122 -132 -113 -98 -108 -128 -90 -82 -82 -67 -35 -22 -19 -44 -47 -57 -50 -33 -19 -4 -1 -1 -2 -2 -6 -0 -4 -35 -34 -19 -7 -1 -0 -0 -0 -0 -0 -0 -0 -0
-292 -149 -226 -133 -7 -148 -81 -71 -112 -142 -140 -144 -134 -140 -125 -113 -106 -121 -109 -87 -42 -45 -48 -67 -71 -77 -72 -27 -45 -50 -42 -39 -52 -42 -61 -43 -74 -109 -67 -28 -5 -1 -0 -0 -0 -0 -0 -0 -24
-343 -301 -210 -167 -148 -166 -59 -69 -71 -136 -159 -169 -216 -204 -160 -137 -128 -177 -169 -172 -162 -133 -87 -126 -104 -108 -99 -58 -85 -148 -136 -92 -103 -99 -99 -99 -96 -90 -16 -90 -73 -44 -27 -27 -13 -12 -30 -22 -41
-188 -229 -247 -115 -164 -139 -107 -186 -141 -156 -110 -229 -213 -250 -231 -175 -197 -218 -232 -251 -230 -199 -161 -181 -117 -126 -135 -134 -102 -131 -167 -111 -132 -135 -124 -135 -130 -274 -27 -136 -107 -107 -101 -79 -73 -63 -61 -70 -68
-347 -201 -208 -178 -20 -295 -124 -93 -78 -125 -141 -275 -330 -219 -248 -204 -229 -230 -236 -244 -238 -236 -216 -232 -172 -171 -160 -146 -136 -137 -172 -159 -154 -144 -140 -143 -144 -149 -190 -188 -130 -124 -151 -174 -139 -140 -74 -112 -97
-239 -186 -180 -125 -202 -135 -107 -113 -110 -111 -0 -187 -122 -248 -237 -220 -223 -220 -223 -228 -244 -244 -232 -237 -241 -234 -177 -182 -184 -152 -185 -200 -176 -169 -150 -156 -163 -160 -156 -191 -158 -135 -146 -126 -117 -128 -133 -109 -126
-131 -163 -158 -199 -91 -141 -194 -146 -214 -0 -0 -244 -0 -25 -204 -199 -201 -244 -215 -234 -264 -265 -234 -252 -280 -248 -212 -209 -209 -208 -158 -171 -164 -171 -162 -155 -181 -149 -147 -186 -177 -154 -132 -112 -87 -118 -116 -129 -124
-143 -149 -206 -185 -135 -156 -233 -203 -264 -0 -0 -0 -0 -0 -0 -0 -0 -0 -150 -236 -242 -221 -268 -272 -216 -226 -251 -239 -258 -319 -249 -295 -0 -240 -197 -215 -96 -0 -138 -153 -151 -144 -94 -98 -83 -80 -114 -198 -0
-0 -45 -128 -170 -216 -246 -195 -276 -315 -0 -138 -0 -0 -0 -0 -0 -0 -0 -0 -123 -275 -278 -285 -278 -247 -252 -299 -322 -153 -0 -0 -110 -154 -235 -213 -231 -208 -167 -172 -137 -130 -130 -134 -141 -84 -127 -192 -113 -154
-0 -0 -11 -119 -249 -259 -267 -279 -285 -234 -0 -0 -0 -0 -0 -0 -0 -0 -0 -22 -70 -0 -292 -280 -350 -93 -275 -0 -322 -202 -223 -152 -176 -170 -206 -267 -211 -168 -141 -134 -104 -151 -184 -248 -172 -162 -149 -0 -37
-0 -0 -0 -0 -226 -230 -245 -237 -360 -355 -327 -0 -0 -0 -0 -0 -0 -0 -0 -0 -0 -0 -381 -0 -0 -0 -254 -259 -191 -211 -147 -161 -184 -255 -264 -218 -166 -107 -112 -117 -104 -135 -181 -229 -226 -225 -201 -181 -117
-0 -0 -0 -26 -221 -185 -221 -193 -291 -378 -367 -73 -0 -0 -0 -0 -0 -0 -0 -0 -228 -0 -0 -0 -0 -0 -287 -235 -245 -236 -240 -215 -245 -297 -328 -351 -148 -243 -140 -95 -95 -109 -126 -220 -234 -207 -184 -166 -133
-0 -0 -0 -39 -220 -236 -254 -220 -294 -377 -317 -347 -0 -0 -0 -0 -0 -0 -0 -0 -267 -0 -0 -0 -0 -0 -336 -254 -366 -293 -309 -322 -298 -328 -0 -0 -0 -0 -130 -94 -120 -106 -142 -132 -154 -118 -92 -105 -114
-0 -0 -0 -197 -142 -100 -227 -124 -0 -342 -343 -304 -350 -0 -0 -0 -0 -0 -0 -0 -102 -0 -0 -0 -0 -195 -352 -340 -336 -221 -175 -180 -253 -331 -97 -0 -0 -0 -203 -89 -133 -90 -86 -97 -111 -95 -99 -99 -72
-0 -0 -0 -248 -17 -0 -248 -197 -0 -393 -320 -341 -307 -344 -0 -0 -0 -0 -0 -0 -0 -0 -0 -447 -0 -480 -328 -351 -334 -298 -209 -247 -341 -461 -385 -364 -0 -0 -321 -102 -102 -70 -74 -89 -71 -75 -69 -89 -166
-0 -0 -0 -0 -0 -0 -0 -0 -0 -200 -207 -281 -315 -288 -366 -459 -0 -0 -0 -0 -0 -0 -0 -387 -529 -442 -396 -394 -390 -332 -262 -231 -267 -202 -0 -328 -356 -376 -335 -159 -94 -106 -108 -138 -114 -158 -290 -0 -0
-0 -0 -0 -0 -0 -0 -0 -0 -0 -0 -0 -234 -252 -305 -338 -336 -161 -0 -0 -0 -0 -0 -393 -353 -455 -418 -398 -376 -377 -383 -306 -277 -263 -276 -277 -262 -275 -258 -210 -154 -188 -153 -153 -144 -200 -369 -0 -0 -0
-0 -0 -0 -0 -0 -0 -0 -0 -0 -426 -216 -36 -252 -253 -299 -396 -522 -0 -0 -0 -0 -0 -407 -343 -374 -373 -411 -410 -383 -385 -333 -323 -316 -294 -264 -281 -287 -240 -197 -177 -181 -176 -188 -212 -155 -0 -0 -0 -0
-0 -0 -0 -0 -0 -0 -0 -0 -12 -385 -265 -364 -318 -372 -364 -413 -492 -497 -0 -0 -0 -230 -404 -364 -347 -357 -404 -405 -399 -415 -396 -305 -308 -299 -295 -305 -303 -260 -204 -219 -253 -299 -299 -322 -0 -59 -0 -0 -0
-0 -0 -0 -0 -0 -0 -0 -0 -138 -118 -128 -222 -300 -360 -389 -392 -437 -469 -168 -0 -92 -388 -343 -344 -339 -331 -397 -397 -415 -421 -414 -399 -314 -265 -257 -226 -348 -299 -212 -243 -286 -397 -435 -468 -537 -55 -0 -0 -0
-0 -0 -0 -0 -0 -0 -0 -0 -0 -163 -308 -119 -298 -358 -394 -370 -388 -414 -451 -0 -438 -381 -337 -336 -344 -345 -363 -387 -388 -396 -421 -437 -410 -302 -223 -239 -416 -543 -240 -326 -319 -400 -427 -502 -92 -0 -0 -0 -0
-0 -0 -0 -0 -0 -0 -0 -0 -0 -0 -0 -572 -357 -438 -379 -417 -345 -355 -410 -486 -507 -403 -357 -376 -354 -379 -395 -375 -347 -351 -369 -365 -356 -334 -299 -250 -323 -366 -398 -395 -323 -467 -433 -523 -0 -0 -0 -0 -0
Wind_Speed
8 6 2 1 2 3 2 4 1 6 3 3 8 3 5 3 1 3 8 7 13 9 8 11 16 17 17 16 16 16 17 17 16 16 16 16 16 16 15 16 16 15 16 15 15 13 12 12 13
4 6 1 1 4 4 3 5 6 4 4 7 4 7 4 4 5 10 7 11 13 11 7 9 15 15 17 16 15 14 16 16 16 16 15 15 15 15 14 14 13 15 14 13 12 11 11 10 10
5 3 1 3 3 3 2 1 8 9 11 5 4 4 4 4 10 11 9 14 12 9 7 11 16 15 16 15 15 14 15 15 15 15 14 14 14 13 12 12 11 13 12 13 12 10 10 9 8
1 2 1 4 2 3 6 7 7 8 3 4 10 7 5 5 13 8 16 14 12 8 7 13 17 16 15 15 13 13 13 13 13 13 12 12 12 11 11 10 9 9 10 10 10 9 9 8 7
3 1 4 3 3 3 9 10 6 7 5 7 3 5 6 6 15 19 16 13 13 8 6 11 16 15 15 14 13 12 12 12 11 11 11 10 9 9 9 8 7 7 7 7 7 7 7 7 6
4 2 4 3 6 4 5 8 12 5 10 10 10 8 3 14 16 15 15 14 13 12 10 9 16 15 15 14 13 12 12 11 11 10 9 9 8 7 7 6 5 4 4 5 5 5 5 6 5
3 2 2 2 4 5 6 7 7 11 11 7 13 5 4 8 10 13 11 11 12 11 10 8 8 13 15 14 13 12 11 11 10 8 7 7 7 6 6 6 5 5 5 5 5 5 4 4 4
4 2 2 3 2 3 7 8 10 15 9 14 7 5 6 10 13 12 10 9 8 8 8 7 6 6 6 6 13 12 11 10 9 9 8 7 7 7 6 6 7 7 7 6 5 5 5 5 5
4 5 4 4 1 4 5 5 10 2 17 6 10 7 12 17 15 13 11 7 6 6 4 5 5 5 5 5 7 11 11 10 9 8 8 5 2 3 4 5 7 9 9 8 8 7 7 6 7
2 4 3 1 4 6 4 10 5 6 16 4 11 15 20 19 16 17 14 14 11 9 7 5 5 6 6 5 3 4 4 3 4 3 4 3 4 3 3 7 10 10 10 10 10 9 10 8 3
6 6 5 3 3 5 9 11 1 12 10 11 22 21 22 19 14 14 13 14 15 11 8 7 6 5 6 5 3 2 2 2 3 5 5 4 2 2 3 2 2 2 9 3 6 5 3 4 3
3 8 3 10 11 9 6 6 2 12 5 16 19 23 21 19 16 14 13 13 12 13 11 10 8 7 5 3 4 4 3 3 3 4 4 3 2 3 3 3 3 3 2 3 3 2 3 3 4
2 4 5 9 14 8 9 15 8 10 10 15 17 21 20 19 17 13 12 11 11 12 11 11 8 7 7 5 4 4 4 4 4 4 5 4 4 4 3 4 4 3 1 3 4 3 3 4 3
11 11 9 9 15 8 12 6 10 9 15 15 20 20 19 19 18 12 11 12 13 12 13 11 10 8 7 6 6 5 4 5 4 4 6 6 4 4 4 4 4 4 4 2 3 3 2 1 3
6 7 8 7 7 3 11 3 4 9 16 17 15 18 19 19 17 16 17 16 17 14 13 13 12 10 7 7 6 4 4 5 5 6 6 6 6 5 5 4 4 3 3 3 4 3 1 2 2
4 3 3 8 8 6 5 4 3 8 16 16 10 13 17 17 16 14 16 16 15 13 14 13 12 11 7 7 5 4 5 4 6 5 5 6 5 4 4 3 3 2 3 4 4 3 3 3 3
3 2 4 2 8 7 4 3 7 6 15 15 13 10 9 12 10 9 15 16 17 15 14 13 11 11 9 7 5 5 6 4 4 4 4 6 6 5 3 3 4 3 2 3 3 2 2 2 2
4 5 5 7 7 5 6 7 6 10 18 17 14 12 9 9 11 10 15 14 15 14 12 12 9 9 9 5 4 3 4 3 2 1 1 5 4 5 5 3 2 3 2 1 2 2 2 1 2
5 7 10 5 7 6 11 4 10 11 17 17 15 13 12 12 12 9 14 15 14 11 12 12 10 8 8 4 3 2 2 0 2 2 2 3 2 3 5 3 3 2 1 2 3 2 1 1 1
8 8 9 7 8 5 6 6 5 13 20 23 19 16 15 14 6 9 13 15 16 15 12 11 11 9 8 4 3 2 3 1 2 1 3 3 2 0 3 3 2 3 2 3 2 3 1 1 1
5 5 5 5 5 4 5 5 6 9 4 11 15 16 15 15 10 11 15 17 16 15 16 13 11 12 8 7 4 3 3 1 2 1 0 1 4 0 2 2 3 3 3 2 1 2 2 0 1
5 6 3 14 6 4 7 5 7 8 10 13 14 13 13 10 10 11 15 15 17 18 14 13 12 12 9 7 6 6 4 3 4 3 3 1 2 2 3 2 3 3 2 1 0 0 1 2 1
10 5 3 5 4 4 2 2 7 8 10 14 16 17 17 11 14 14 18 19 19 14 14 13 11 12 11 9 7 6 5 4 2 1 2 1 2 2 1 3 4 4 3 3 1 1 2 1 1
3 3 6 5 3 4 2 4 8 6 15 11 14 17 18 13 13 15 17 16 15 13 12 11 13 13 10 10 8 9 9 5 3 2 4 4 2 2 2 2 3 3 4 4 3 3 5 4 3
7 8 5 6 7 5 1 3 10 4 8 13 20 21 19 15 13 12 15 14 13 15 14 12 13 13 12 12 9 9 8 8 8 7 5 3 2 2 3 5 4 3 3 4 4 4 4 2 2
4 8 7 3 1 5 3 4 7 6 9 9 13 21 18 16 12 14 14 16 16 17 16 15 14 12 13 13 12 9 8 6 5 6 4 4 4 4 6 6 5 6 6 5 5 3 3 5 3
4 3 4 8 3 3 3 6 9 5 11 5 7 12 17 18 15 16 13 16 16 16 18 18 16 14 13 14 11 8 6 6 8 8 6 4 4 3 6 7 7 7 7 6 5 3 4 4 3
3 5 4 4 3 1 5 4 5 6 2 6 5 10 14 17 16 12 13 15 15 17 17 16 15 17 17 14 12 10 10 7 7 6 7 6 6 6 6 6 6 6 6 6 6 5 5 6 3
7 5 6 5 4 7 2 8 8 10 9 3 7 7 11 16 18 16 15 13 14 14 14 16 14 15 12 12 12 10 9 10 7 7 6 6 6 7 6 5 5 8 9 7 7 6 7 6 6
6 4 4 6 5 1 4 9 4 7 8 2 2 4 8 11 16 15 14 12 12 14 14 16 15 14 14 13 11 12 10 8 8 8 7 7 7 7 9 10 11 8 8 8 7 7 6 6 5
Wind_Direction
179 171 146 246 27 63 43 21 358 116 132 145 136 148 152 50 163 185 143 155 128 134 155 146 138 132 130 127 124 123 119 118 117 115 119 118 117 112 115 112 114 114 118 117 119 123 120 117 120
165 165 188 58 73 50 28 133 149 176 140 93 94 124 74 87 72 112 124 154 138 139 144 144 139 141 137 133 127 125 122 122 119 114 117 119 117 118 118 118 120 120 118 118 121 125 124 119 115
170 245 309 89 78 95 136 32 124 114 123 131 108 90 77 103 111 142 133 141 134 129 136 148 141 142 140 138 132 126 126 126 120 119 119 115 116 117 120 121 127 124 126 128 133 136 126 123 123
136 26 65 61 343 13 122 116 141 143 177 75 115 73 67 132 145 138 139 140 128 122 134 148 148 149 147 145 142 138 131 129 125 123 118 117 118 124 123 123 125 124 131 133 141 143 138 134 127
49 136 44 22 343 100 131 132 191 143 136 103 89 97 90 132 111 131 140 139 136 128 142 148 154 155 154 150 148 144 140 140 135 131 134 131 130 131 130 131 133 136 142 141 149 147 145 143 137
17 63 51 44 10 101 118 169 154 126 117 99 101 105 95 132 132 145 143 143 142 142 150 165 159 160 157 159 157 154 152 152 149 150 150 147 152 149 146 146 152 159 175 165 172 167 169 158 156
104 39 108 349 324 201 166 193 160 139 120 129 136 72 79 138 138 137 132 139 147 148 149 160 165 167 168 166 167 164 162 164 164 162 164 171 178 177 174 174 183 198 211 205 203 191 194 197 198
119 95 147 135 22 288 154 169 131 141 150 133 141 142 165 165 140 120 123 134 144 152 160 162 163 163 162 168 170 175 172 174 177 186 188 189 191 194 199 192 212 220 216 215 210 216 212 213 211
161 61 3 2 26 312 285 155 155 128 137 178 181 138 138 136 131 127 132 138 143 158 171 165 157 152 154 168 182 177 180 181 191 195 195 197 181 229 225 210 215 224 227 222 223 225 229 227 234
95 122 191 71 353 332 215 157 124 131 155 133 107 108 134 142 150 149 157 162 171 172 183 175 169 167 165 175 190 161 191 178 207 199 220 202 210 218 223 231 216 224 230 234 231 231 229 225 214
250 161 99 60 77 321 331 149 177 151 178 165 148 144 151 154 163 162 167 173 175 175 181 183 175 179 180 182 166 175 192 190 220 214 219 228 211 236 235 244 261 242 234 224 236 241 227 223 218
346 310 61 71 353 256 222 345 253 185 200 162 157 153 152 165 171 173 169 175 173 176 188 187 185 182 189 170 180 184 188 208 223 225 226 222 205 235 239 231 235 232 240 243 248 264 247 243 242
267 248 202 179 189 235 242 232 260 215 148 136 148 154 162 174 179 180 179 169 169 180 189 188 186 191 191 185 181 189 203 213 216 226 235 219 212 227 218 233 228 221 217 241 245 245 250 245 237
201 195 196 201 201 215 199 219 198 198 153 148 152 163 170 179 184 168 175 174 178 187 191 183 190 194 188 188 185 198 191 224 213 222 232 214 214 232 216 220 223 211 211 232 215 218 264 248 218
234 145 156 255 176 154 131 332 141 157 156 166 160 164 177 187 184 179 182 182 185 191 186 186 189 192 190 196 191 192 207 214 222 229 226 224 211 232 225 214 212 211 215 224 204 180 227 264 229
152 58 170 213 163 133 119 233 256 162 162 173 182 170 172 195 189 191 185 184 186 185 188 188 192 188 182 194 200 192 225 221 225 223 211 212 210 206 205 202 232 238 213 202 203 172 225 244 248
25 256 252 251 195 125 125 173 230 200 172 177 186 190 182 177 188 183 192 181 178 184 182 186 187 184 180 193 196 193 197 214 243 207 203 198 191 184 183 202 245 216 207 192 197 167 162 223 261
276 282 265 231 206 139 164 238 180 203 179 183 187 196 199 204 206 177 179 179 174 181 180 177 176 177 176 175 191 207 209 196 227 110 241 192 189 199 188 206 216 165 181 128 164 143 171 216 258
242 256 253 261 181 140 193 210 184 199 188 184 191 200 206 210 217 164 177 172 171 171 169 173 166 174 162 177 168 194 196 310 55 136 161 141 180 221 192 177 132 129 122 128 135 94 153 303 320
223 243 247 290 150 161 147 219 204 196 196 188 186 197 207 214 202 164 170 172 174 178 179 176 182 171 186 173 175 141 150 134 188 140 182 175 144 111 155 154 151 112 89 79 122 109 79 302 217
281 188 252 176 135 355 60 311 194 192 207 193 203 199 205 201 190 171 170 178 177 182 184 183 179 180 189 187 101 61 66 90 48 16 23 234 144 189 73 171 132 130 113 160 178 133 105 317 313
310 227 287 131 111 208 142 264 237 167 185 197 191 197 205 186 188 174 173 179 183 195 187 183 176 182 195 179 152 155 189 171 198 194 188 145 112 55 67 134 121 144 126 96 40 95 78 69 335
248 318 45 139 122 117 220 42 264 136 179 202 197 199 207 188 182 181 182 185 195 180 183 183 179 185 193 189 180 180 206 188 123 151 137 189 124 131 68 155 154 168 157 150 138 78 81 88 72
271 297 49 68 98 37 297 133 284 180 207 196 195 203 202 187 186 187 191 182 187 185 178 175 180 191 190 192 189 189 199 187 145 217 199 217 152 120 203 191 180 167 166 168 166 144 131 129 120
72 46 350 0 13 213 306 19 245 268 244 200 184 193 197 184 184 182 177 184 184 183 182 179 181 190 192 193 203 201 194 184 197 210 215 154 131 168 189 167 177 170 168 151 147 133 115 112 99
153 148 149 220 208 270 50 233 279 297 270 199 190 188 179 180 175 186 182 186 186 187 186 183 186 191 193 196 207 208 188 192 192 203 197 181 191 180 170 167 164 151 155 159 141 128 118 108 86
181 167 182 104 12 37 274 306 315 338 27 61 156 153 176 184 183 188 184 191 189 189 191 189 189 197 196 202 205 212 191 182 197 198 189 192 164 164 177 163 170 171 164 160 124 116 114 114 116
118 160 60 14 154 229 300 283 241 322 5 100 134 176 183 186 192 186 198 194 192 193 198 193 192 197 198 199 204 208 209 197 199 178 197 188 156 183 154 169 187 162 139 133 151 144 148 132 139
9 7 56 123 125 158 190 266 217 214 235 130 152 176 185 189 193 193 199 197 198 193 192 199 198 199 196 198 201 204 203 206 189 191 192 168 150 141 129 155 147 185 163 170 156 152 142 145 144
112 39 122 117 246 282 154 266 270 213 272 294 249 139 173 199 197 192 193 183 191 191 191 200 199 197 201 199 196 206 211 203 189 192 185 147 141 134 140 172 198 177 167 166 135 150 167 161 161